�������l�o���
Date,Time,MP-1(��Sv/h),MP-2(��Sv/h),MP-3(��Sv/h),MP-4(��Sv/h),MP-5(��Sv/h),MP-6(��Sv/h),MP-7(��Sv/h),MP-8(��Sv/h),����,����(m/s),���J
2020/05/02,00:00,0.705,1.017,0.667,1.225,0.880,0.403,0.698,0.662,���쐼,4.0,��
2020/05/02,00:10,0.704,1.016,0.667,1.229,0.880,0.403,0.701,0.662,�쐼,2.3,��
2020/05/02,00:20,0.703,1.016,0.668,1.223,0.881,0.402,0.700,0.662,��,3.6,��
2020/05/02,00:30,0.706,1.015,0.666,1.227,0.883,0.403,0.701,0.662,��쐼,4.0,��
2020/05/02,00:40,0.704,1.017,0.667,1.228,0.879,0.404,0.699,0.663,��,4.4,��
2020/05/02,00:50,0.705,1.018,0.665,1.228,0.880,0.402,0.700,0.661,��쓌,4.6,��
2020/05/02,01:00,0.705,1.016,0.667,1.227,0.881,0.401,0.700,0.662,��,4.8,��
2020/05/02,01:10,0.704,1.015,0.668,1.227,0.881,0.402,0.700,0.661,��쐼,5.1,��
2020/05/02,01:20,0.704,1.015,0.668,1.225,0.879,0.402,0.700,0.662,�쐼,4.8,��
2020/05/02,01:30,0.705,1.015,0.668,1.225,0.880,0.404,0.699,0.660,�쐼,3.8,��
2020/05/02,01:40,0.707,1.017,0.667,1.225,0.879,0.402,0.701,0.661,�쐼,3.3,��
2020/05/02,01:50,0.703,1.016,0.666,1.227,0.879,0.402,0.699,0.662,�쐼,2.9,��
2020/05/02,02:00,0.705,1.014,0.667,1.226,0.879,0.401,0.699,0.660,�쐼,3.6,��
2020/05/02,02:10,0.705,1.013,0.667,1.228,0.876,0.402,0.699,0.660,�쐼,3.5,��
2020/05/02,02:20,0.703,1.013,0.666,1.225,0.881,0.402,0.700,0.661,�쐼,5.5,��
2020/05/02,02:30,0.705,1.013,0.666,1.226,0.878,0.403,0.701,0.662,��쐼,5.5,��
2020/05/02,02:40,0.704,1.014,0.668,1.226,0.879,0.402,0.699,0.660,�쐼,5.0,��
2020/05/02,02:50,0.706,1.016,0.666,1.227,0.879,0.402,0.700,0.661,�쐼,4.3,��
2020/05/02,03:00,0.705,1.015,0.666,1.227,0.880,0.402,0.698,0.660,�쐼,5.0,��
2020/05/02,03:10,0.706,1.014,0.667,1.229,0.879,0.402,0.701,0.660,�쐼,5.7,��
2020/05/02,03:20,0.705,1.016,0.667,1.226,0.877,0.402,0.701,0.660,�쐼,5.6,��
2020/05/02,03:30,0.704,1.014,0.664,1.226,0.880,0.404,0.701,0.661,�쐼,5.3,��
2020/05/02,03:40,0.705,1.014,0.667,1.226,0.877,0.403,0.700,0.662,�쐼,5.5,��
2020/05/02,03:50,0.705,1.014,0.667,1.227,0.880,0.403,0.700,0.662,�쐼,5.6,��
2020/05/02,04:00,0.706,1.014,0.666,1.228,0.880,0.401,0.701,0.662,���쐼,4.7,��
2020/05/02,04:10,0.705,1.014,0.665,1.228,0.879,0.402,0.699,0.660,�쐼,3.8,��
2020/05/02,04:20,0.705,1.013,0.665,1.227,0.880,0.401,0.700,0.664,��쐼,3.5,��
2020/05/02,04:30,0.703,1.014,0.666,1.225,0.878,0.400,0.700,0.662,��쐼,4.3,��
2020/05/02,04:40,0.703,1.016,0.666,1.227,0.879,0.402,0.701,0.661,��쐼,4.5,��
2020/05/02,04:50,0.705,1.015,0.667,1.227,0.879,0.401,0.701,0.662,��쐼,4.1,��
2020/05/02,05:00,0.705,1.014,0.667,1.226,0.878,0.402,0.700,0.664,��쐼,4.1,��
2020/05/02,05:10,0.704,1.015,0.667,1.228,0.878,0.401,0.701,0.662,��쐼,4.1,��
2020/05/02,05:20,0.702,1.014,0.667,1.227,0.878,0.402,0.698,0.661,��쐼,3.2,��
2020/05/02,05:30,0.703,1.015,0.667,1.226,0.877,0.402,0.699,0.662,��쐼,3.6,��
2020/05/02,05:40,0.706,1.012,0.668,1.226,0.879,0.402,0.700,0.661,��쐼,4.2,��
2020/05/02,05:50,0.704,1.015,0.666,1.225,0.878,0.402,0.700,0.663,��쐼,4.0,��
2020/05/02,06:00,0.705,1.015,0.667,1.228,0.877,0.401,0.700,0.662,��쐼,4.8,��
2020/05/02,06:10,0.706,1.016,0.667,1.230,0.878,0.402,0.701,0.660,��쐼,5.4,��
2020/05/02,06:20,0.705,1.014,0.669,1.227,0.880,0.403,0.701,0.662,��쐼,5.5,��
2020/05/02,06:30,0.706,1.016,0.666,1.227,0.880,0.402,0.700,0.661,��쐼,6.4,��
2020/05/02,06:40,0.705,1.015,0.668,1.229,0.880,0.403,0.700,0.665,��쐼,5.4,��
2020/05/02,06:50,0.704,1.017,0.669,1.230,0.881,0.402,0.701,0.663,��쐼,3.9,��
2020/05/02,07:00,0.707,1.014,0.668,1.229,0.879,0.401,0.700,0.662,��쐼,4.7,��
2020/05/02,07:10,0.706,1.013,0.668,1.227,0.880,0.401,0.701,0.663,��쐼,4.3,��
2020/05/02,07:20,0.704,1.014,0.667,1.225,0.880,0.400,0.699,0.663,��,4.1,��
2020/05/02,07:30,0.704,1.012,0.667,1.229,0.880,0.401,0.699,0.660,��쓌,4.7,��
2020/05/02,07:40,0.705,1.015,0.666,1.228,0.880,0.401,0.699,0.661,��쓌,7.3,��
2020/05/02,07:50,0.705,1.014,0.666,1.227,0.879,0.401,0.698,0.660,��,7.6,��
2020/05/02,08:00,0.705,1.016,0.668,1.230,0.879,0.400,0.700,0.661,��,7.2,��
2020/05/02,08:10,0.706,1.014,0.668,1.229,0.880,0.401,0.698,0.660,��,8.5,��
2020/05/02,08:20,0.704,1.015,0.667,1.230,0.878,0.401,0.699,0.660,��,7.4,��
2020/05/02,08:30,0.704,1.014,0.668,1.229,0.878,0.402,0.699,0.661,��,8.9,��
2020/05/02,08:40,0.705,1.016,0.667,1.229,0.880,0.402,0.700,0.660,��,8.4,��
2020/05/02,08:50,0.704,1.016,0.665,1.231,0.880,0.402,0.699,0.661,��,7.5,��
2020/05/02,09:00,0.703,1.015,0.666,1.230,0.881,0.402,0.701,0.660,��,7.6,��
2020/05/02,09:10,0.706,1.016,0.667,1.227,0.875,0.403,0.701,0.660,��,8.4,��
2020/05/02,09:20,0.705,1.016,0.667,1.229,0.873,0.403,0.700,0.661,��,7.9,��
2020/05/02,09:30,0.704,1.019,0.667,1.229,0.873,0.403,0.702,0.659,��,7.7,��
2020/05/02,09:40,0.705,1.019,0.667,1.229,0.873,0.404,0.701,0.660,��,7.0,��
2020/05/02,09:50,0.707,1.018,0.667,1.228,0.879,0.403,0.700,0.661,��,7.6,��
2020/05/02,10:00,0.706,1.021,0.666,1.231,0.881,0.404,0.703,0.659,��,7.3,��
2020/05/02,10:10,0.704,1.020,0.667,1.229,0.881,0.405,0.701,0.661,��,8.1,��
2020/05/02,10:20,0.705,1.021,0.665,1.229,0.880,0.404,0.700,0.660,��,8.5,��
2020/05/02,10:30,0.708,1.020,0.667,1.230,0.883,0.404,0.700,0.659,��쓌,10.7,��
2020/05/02,10:40,0.706,1.020,0.668,1.230,0.884,0.402,0.701,0.660,��,10.5,��
2020/05/02,10:50,0.705,1.021,0.668,1.229,0.882,0.403,0.702,0.660,��,9.6,��
2020/05/02,11:00,0.704,1.021,0.667,1.230,0.882,0.404,0.702,0.658,��,8.1,��
2020/05/02,11:10,0.705,1.019,0.668,1.229,0.884,0.405,0.701,0.659,��,8.6,��
2020/05/02,11:20,0.706,1.020,0.668,1.227,0.882,0.404,0.700,0.660,��쓌,8.4,��
2020/05/02,11:30,0.706,1.022,0.667,1.229,0.881,0.405,0.700,0.661,��,9.4,��
2020/05/02,11:40,0.707,1.021,0.667,1.228,0.885,0.406,0.702,0.660,��,8.6,��
2020/05/02,11:50,0.706,1.022,0.670,1.229,0.885,0.404,0.700,0.660,��,9.3,��
2020/05/02,12:00,0.706,1.024,0.670,1.232,0.883,0.404,0.701,0.660,��,9.2,��
2020/05/02,12:10,0.707,1.022,0.668,1.228,0.882,0.405,0.703,0.662,��,7.6,��
2020/05/02,12:20,0.708,1.021,0.669,1.230,0.884,0.405,0.701,0.662,��,7.5,��
2020/05/02,12:30,0.707,1.022,0.670,1.229,0.885,0.404,0.701,0.662,��,7.6,��
2020/05/02,12:40,0.708,1.022,0.669,1.228,0.884,0.402,0.701,0.660,��,7.3,��
2020/05/02,12:50,0.710,1.024,0.669,1.230,0.885,0.403,0.703,0.661,��,8.1,��
2020/05/02,13:00,0.711,1.024,0.671,1.228,0.884,0.405,0.702,0.662,��,8.0,��
2020/05/02,13:10,0.711,1.024,0.670,1.229,0.886,0.405,0.703,0.662,��,7.0,��
2020/05/02,13:20,0.710,1.024,0.672,1.229,0.888,0.406,0.703,0.661,��,3.5,��
2020/05/02,13:30,0.709,1.023,0.669,1.232,0.888,0.406,0.704,0.661,��,5.4,��
2020/05/02,13:40,0.710,1.022,0.670,1.232,0.884,0.405,0.702,0.661,��,6.7,��
2020/05/02,13:50,0.711,1.024,0.671,1.234,0.887,0.404,0.703,0.661,��,6.9,��
2020/05/02,14:00,0.709,1.024,0.672,1.233,0.886,0.406,0.703,0.661,��,7.9,��
2020/05/02,14:10,0.709,1.023,0.671,1.232,0.887,0.405,0.703,0.662,��,10.5,��
2020/05/02,14:20,0.709,1.026,0.671,1.232,0.885,0.405,0.701,0.661,��,10.2,��
2020/05/02,14:30,0.709,1.024,0.671,1.231,0.887,0.405,0.703,0.661,��,9.4,��
2020/05/02,14:40,0.709,1.023,0.669,1.230,0.887,0.405,0.702,0.662,��,9.8,��
2020/05/02,14:50,0.709,1.022,0.670,1.231,0.887,0.405,0.702,0.661,��,8.7,��
2020/05/02,15:00,0.709,1.023,0.670,1.233,0.887,0.404,0.701,0.661,��,6.3,��
2020/05/02,15:10,0.711,1.024,0.670,1.232,0.887,0.405,0.701,0.661,��,8.5,��
2020/05/02,15:20,0.710,1.022,0.670,1.234,0.885,0.407,0.704,0.662,��,8.2,��
2020/05/02,15:30,0.710,1.025,0.672,1.229,0.886,0.407,0.704,0.662,��,7.4,��
2020/05/02,15:40,0.712,1.024,0.671,1.233,0.888,0.407,0.704,0.661,��쐼,4.9,��
2020/05/02,15:50,0.708,1.025,0.670,1.232,0.887,0.407,0.702,0.660,��,5.4,��
2020/05/02,16:00,0.710,1.025,0.670,1.229,0.887,0.406,0.702,0.661,��쐼,4.7,��
2020/05/02,16:10,0.710,1.025,0.670,1.231,0.886,0.408,0.704,0.661,��쐼,4.6,��
2020/05/02,16:20,0.711,1.024,0.670,1.231,0.887,0.407,0.702,0.661,��쐼,3.4,��
2020/05/02,16:30,0.713,1.023,0.670,1.234,0.887,0.406,0.702,0.661,��쐼,4.6,��
2020/05/02,16:40,0.713,1.023,0.670,1.232,0.888,0.406,0.702,0.663,��쐼,4.1,��
2020/05/02,16:50,0.710,1.023,0.672,1.235,0.888,0.407,0.703,0.661,�쐼,4.4,��
2020/05/02,17:00,0.712,1.026,0.672,1.235,0.886,0.408,0.704,0.664,�쐼,5.1,��
2020/05/02,17:10,0.711,1.026,0.672,1.233,0.887,0.409,0.702,0.661,�k��,1.7,��
2020/05/02,17:20,0.712,1.026,0.673,1.234,0.889,0.408,0.703,0.661,�k�k��,3.5,��
2020/05/02,17:30,0.711,1.025,0.673,1.235,0.887,0.410,0.703,0.662,�k�k��,4.0,��
2020/05/02,17:40,0.713,1.025,0.674,1.235,0.888,0.408,0.703,0.662,�k�k��,4.5,��
2020/05/02,17:50,0.708,1.028,0.674,1.233,0.893,0.409,0.701,0.661,�k�k��,3.9,��
2020/05/02,18:00,0.708,1.028,0.672,1.233,0.888,0.408,0.700,0.662,�k�k��,3.1,��
2020/05/02,18:10,0.709,1.024,0.673,1.233,0.887,0.408,0.700,0.662,�k,2.8,��
2020/05/02,18:20,0.711,1.028,0.672,1.232,0.890,0.408,0.702,0.661,�k,2.3,��
2020/05/02,18:30,0.711,1.027,0.671,1.235,0.888,0.408,0.703,0.662,�k,2.0,��
2020/05/02,18:40,0.711,1.028,0.672,1.236,0.888,0.409,0.704,0.663,�k��,2.9,��
2020/05/02,18:50,0.710,1.028,0.674,1.237,0.888,0.409,0.704,0.664,�k��,4.4,��
2020/05/02,19:00,0.711,1.026,0.673,1.236,0.890,0.406,0.705,0.664,�k�k��,3.8,��
2020/05/02,19:10,0.711,1.026,0.675,1.235,0.889,0.407,0.705,0.663,�k�k��,3.3,��
2020/05/02,19:20,0.711,1.025,0.672,1.236,0.888,0.408,0.705,0.663,�k,2.9,��
2020/05/02,19:30,0.711,1.027,0.673,1.237,0.888,0.407,0.705,0.665,�k�k��,2.0,��
2020/05/02,19:40,0.711,1.025,0.673,1.235,0.891,0.407,0.706,0.664,�k��,2.3,��
2020/05/02,19:50,0.712,1.025,0.672,1.235,0.889,0.406,0.703,0.663,���k��,2.6,��
2020/05/02,20:00,0.711,1.026,0.674,1.234,0.888,0.407,0.704,0.663,��,2.5,��
2020/05/02,20:10,0.713,1.025,0.672,1.234,0.888,0.407,0.705,0.665,���쐼,1.9,��
2020/05/02,20:20,0.712,1.026,0.672,1.236,0.889,0.407,0.703,0.662,�쐼,2.0,��
2020/05/02,20:30,0.712,1.025,0.674,1.238,0.887,0.408,0.703,0.663,�쐼,2.6,��
2020/05/02,20:40,0.712,1.024,0.672,1.236,0.886,0.407,0.703,0.663,�쐼,3.9,��
2020/05/02,20:50,0.714,1.025,0.672,1.238,0.887,0.406,0.705,0.663,���쐼,4.3,��
2020/05/02,21:00,0.711,1.025,0.674,1.236,0.888,0.407,0.705,0.664,��,5.2,��
2020/05/02,21:10,0.713,1.024,0.674,1.237,0.890,0.406,0.702,0.663,��,5.4,��
2020/05/02,21:20,0.710,1.025,0.671,1.235,0.888,0.405,0.704,0.665,��,5.1,��
2020/05/02,21:30,0.711,1.025,0.672,1.236,0.888,0.405,0.705,0.665,��,4.9,��
2020/05/02,21:40,0.709,1.024,0.673,1.236,0.890,0.406,0.703,0.662,��,4.2,��
2020/05/02,21:50,0.711,1.024,0.672,1.237,0.890,0.406,0.704,0.663,���쐼,2.3,��
2020/05/02,22:00,0.713,1.030,0.672,1.237,0.888,0.405,0.703,0.663,���쐼,2.0,��
2020/05/02,22:10,0.713,1.024,0.672,1.237,0.886,0.405,0.704,0.663,���쐼,1.4,��
2020/05/02,22:20,0.712,1.025,0.673,1.237,0.887,0.406,0.703,0.663,�쐼,3.1,��
2020/05/02,22:30,0.710,1.022,0.672,1.235,0.890,0.406,0.704,0.663,���쐼,5.5,��
2020/05/02,22:40,0.709,1.026,0.671,1.235,0.889,0.408,0.703,0.662,�쐼,4.7,��
2020/05/02,22:50,0.713,1.024,0.672,1.238,0.889,0.405,0.703,0.662,���쐼,5.0,��
2020/05/02,23:00,0.712,1.024,0.671,1.234,0.889,0.405,0.704,0.663,���쐼,5.9,��
2020/05/02,23:10,0.711,1.021,0.674,1.236,0.888,0.406,0.703,0.662,�쐼,5.8,��
2020/05/02,23:20,0.711,1.022,0.671,1.233,0.886,0.406,0.703,0.664,�쐼,7.9,��
2020/05/02,23:30,0.710,1.020,0.670,1.235,0.886,0.405,0.703,0.661,�쐼,6.0,��
2020/05/02,23:40,0.711,1.023,0.670,1.233,0.886,0.405,0.703,0.664,�쐼,5.3,��
2020/05/02,23:50,0.710,1.021,0.671,1.236,0.886,0.407,0.703,0.663,�쐼,5.6,��
